Zurück zum Katalog

ATLAS 5 CENTAUR DEB

LostHEO
NORAD 46866·DEBRIS·🇺🇸 United States

Gestartet Oct 17, 2018 von Cape Canaveral Space Force Station

Loading…

Nächste Überflüge (nächste 24 Stunden)

TLE

VeraltetSource: Space-Track

Epoche: Aug 1, 2022, 03:27 UTC

1 46866U 18079DX  22213.14391944 -.00000065  00000-0  00000+0 0  9991
2 46866  10.2572 125.2588 4247198 154.5077 234.4488  2.07003218 13194

Verfolge ATLAS 5 CENTAUR DEB in Echtzeit mit AllMySat

Download on the App Store